TimeAWST,TemperatureF,Dew PointF,Humidity,Sea Level PressureIn,VisibilityMPH,Wind Direction,Wind SpeedMPH,Gust SpeedMPH,PrecipitationIn,Events,Conditions,WindDirDegrees,DateUTC
12:00 AM,86,39,10,29.84,,SE,11.5,,,,,130,2012-10-11 16:00:00
12:00 AM,86.0,39.2,19,29.86,-9999.0,SE,11.5,-,N/A,,Unknown,130,2012-10-11 16:00:00
1:00 AM,84.2,37.4,19,29.83,-9999.0,SE,10.4,-,N/A,,Unknown,130,2012-10-11 17:00:00
2:00 AM,84.2,35.6,18,29.83,-9999.0,ESE,12.7,-,N/A,,Unknown,120,2012-10-11 18:00:00
3:00 AM,83,36,10,29.83,,SE,11.5,,,,,130,2012-10-11 19:00:00
3:00 AM,82.4,37.4,20,29.83,-9999.0,SE,11.5,-,N/A,,Unknown,130,2012-10-11 19:00:00
4:00 AM,82.4,35.6,19,29.86,-9999.0,ESE,10.4,-,N/A,,Unknown,120,2012-10-11 20:00:00
6:00 AM,81,38,13,29.90,,ESE,9.2,,,,,120,2012-10-11 22:00:00
6:00 AM,80.6,39.2,23,29.89,-9999.0,ESE,9.2,-,N/A,,Unknown,120,2012-10-11 22:00:00
7:00 AM,84.2,57.2,40,29.92,-9999.0,East,8.1,-,N/A,,Unknown,80,2012-10-11 23:00:00
8:00 AM,89.6,68.0,49,29.95,-9999.0,ENE,11.5,-,N/A,,Unknown,70,2012-10-12 00:00:00
9:00 AM,95.0,62.6,34,29.95,-9999.0,ENE,11.5,-,N/A,,Unknown,60,2012-10-12 01:00:00
10:00 AM,98.6,62.6,30,29.95,-9999.0,NE,10.4,-,N/A,,Unknown,50,2012-10-12 02:00:00
11:00 AM,100.4,60.8,27,29.92,-9999.0,ENE,9.2,-,N/A,,Unknown,70,2012-10-12 03:00:00
12:00 PM,98.6,59.0,27,29.89,-9999.0,NNW,9.2,-,N/A,,Unknown,340,2012-10-12 04:00:00
1:00 PM,102.2,59.0,24,29.86,-9999.0,NNW,8.1,-,N/A,,Unknown,340,2012-10-12 05:00:00
2:00 PM,100.4,57.2,24,29.83,-9999.0,WNW,8.1,-,N/A,,Unknown,300,2012-10-12 06:00:00
3:00 PM,100.4,62.6,29,29.83,-9999.0,WNW,11.5,-,N/A,,Unknown,300,2012-10-12 07:00:00
4:00 PM,98.6,64.4,32,29.83,-9999.0,WNW,10.4,-,N/A,,Unknown,300,2012-10-12 08:00:00
5:00 PM,93.2,64.4,38,29.86,-9999.0,NW,9.2,-,N/A,,Unknown,310,2012-10-12 09:00:00
6:00 PM,90,63,30,29.91,,ENE,4.6,,,,,70,2012-10-12 10:00:00
6:00 PM,89.6,62.6,40,29.92,-9999.0,ENE,4.6,-,N/A,,Unknown,70,2012-10-12 10:00:00
7:00 PM,87.8,64.4,46,29.92,-9999.0,North,8.1,-,N/A,,Unknown,350,2012-10-12 11:00:00
8:00 PM,84.2,68.0,58,29.95,-9999.0,North,8.1,-,N/A,,Unknown,360,2012-10-12 12:00:00
9:00 PM,84,69,52,29.96,,NW,4.6,,,,,310,2012-10-12 13:00:00
9:00 PM,84.2,69.8,62,29.98,-9999.0,NW,4.6,-,N/A,,Unknown,310,2012-10-12 13:00:00
10:00 PM,82.4,71.6,70,29.98,-9999.0,WSW,6.9,-,N/A,,Unknown,250,2012-10-12 14:00:00
11:00 PM,82.4,73.4,74,29.95,-9999.0,West,6.9,-,N/A,,Unknown,280,2012-10-12 15:00:00